Preview of NWS' New Version of Forecast
This preview is not operational and should not be used for support decisions.

Regional Weather Roundup (RWR)

Issued by National Weather Service (NWS)

                            
000
ASUS43 KLSX 212257
RWRMO 

WEATHER SUMMARY FOR MISSOURI
NATIONAL WEATHER SERVICE SPRINGFIELD MO
500 PM CST THU FEB 21 2019

NOTE: "FAIR" INDICATES FEW OR NO CLOUDS BELOW 12,000 FEET WITH NO
       SIGNIFICANT WEATHER AND/OR OBSTRUCTIONS TO VISIBILITY.
       CURRENT SKY AND/OR WEATHER CONDITIONS ARE NOT AVAILABLE FOR
       CHILLICOTHE AND FARMINGTON.

MOZ001>031-035>038-043-044-053-054-220000-
...NORTHERN AND WESTERN MISSOURI...
  
CITY           SKY/WX    TMP DP  RH WIND       PRES   REMARKS
KANSAS CTY INT PTSUNNY   36  21  54 E14       30.17S WCI  27          
LEE'S SUMMIT   CLOUDY    37  26  64 E10       30.17S WCI  30          
ST JOSEPH      MOSUNNY   38  20  48 E12       30.20R                  
CHILLICOTHE      N/A     39  22  50 E5        30.24R                  
     
$$
MOZ066>068-077>081-088>096-101>105-220000-
...SOUTHWEST MISSOURI...
  
CITY           SKY/WX    TMP DP  RH WIND       PRES   REMARKS
SPRINGFIELD    MOSUNNY   45  24  43 E9        30.11S                  
JOPLIN         MOSUNNY   45  24  43 E10       30.09F                  
BRANSON        CLOUDY    43  23  45 E14       30.14S                  
               
$$
MOZ032>034-039>042-045>050-055>058-069>072-220000-
...CENTRAL MISSOURI...  
  
CITY           SKY/WX    TMP DP  RH WIND       PRES   REMARKS
COLUMBIA       NOT AVBL                                               
JEFFERSON CITY CLOUDY    41  23  48 NE9       30.21F                  
ROLLA          CLOUDY    40  26  57 NE9       30.18F                  
SEDALIA        MOCLDY    37  27  67 E8        30.19F                  
WARRENSBURG    CLOUDY    36  27  69 E10       30.19F WCI  28          
               
$$
MOZ051-052-059>065-220000-
...EAST CENTRAL MISSOURI...
  
CITY           SKY/WX    TMP DP  RH WIND       PRES   REMARKS
ST LOUIS INTL  CLOUDY    41  25  53 NE9       30.25F                  
                   
$$
MOZ072>076-082>087-097>100-106>115-220000-
...SOUTH CENTRAL AND SOUTHEAST MISSOURI...
  
CITY           SKY/WX    TMP DP  RH WIND       PRES   REMARKS
CAPE GIRARDEAU FAIR      45  28  51 NE8       30.20S                  
POPLAR BLUFF   FAIR      44  31  60 E6        30.21R                  
WEST PLAINS    CLOUDY    44  24  45 E7        30.16R                  
                                       
$$